Location: Newark
(52.3500°N, 175.9667°E)
Time: 06:51:13
(UTC+00:00)

S-56A Canister/Altair - Pass Details

Date: 25 April 2021
Orbit: 631 x 2501 km, 38.9° (Epoch: 12 May)

Event Time Altitude Azimuth Distance (km) Brightness Sun altitude
Rises 13:06:05 0° 257° (WSW) 4,364 11.1 -23.3°
Enters shadow 13:06:16 - 257° (WSW) 4,299 11.1 -23.3°
Reaches altitude 10° 13:10:09 10° 244° (WSW) 3,040 - -23.2°
Maximum altitude 13:15:13 21° 198° (SSW) 1,938 - -23.0°
Drops below altitude 10° 13:19:15 10° 150° (SSE) 2,333 - -22.8°
Sets 13:21:54 0° 133° (SE) 3,101 - -22.7°
